Location: Ames
(42.0350°N, 93.6200°W)
Time: 00:19:44
(UTC-05:00)

ISS - All Passes

Search period start: 19 April 2014 00:00
Search period end: 29 April 2014 00:00
Orbit: 414 x 419 km, 51.6° (Epoch: 18 April)

Date Brightness Start Highest point End Pass type
(mag) Time Alt. Az. Time Alt. Az. Time Alt. Az.
19 Apr - 14:47:47 10° SSE 14:49:25 13° SE 14:51:03 10° E daylight
19 Apr - 16:22:24 10° WSW 16:25:45 77° NNW 16:29:06 10° NE daylight
19 Apr - 18:00:19 10° WNW 18:02:55 20° NNW 18:05:31 10° NE daylight
19 Apr - 19:38:21 10° NW 19:40:35 16° N 19:42:48 10° NE daylight
19 Apr - 21:14:55 10° NW 21:18:03 35° NNE 21:21:10 10° E visible
19 Apr - 22:51:42 10° WNW 22:54:47 33° SW 22:57:50 10° SSE visible
20 Apr - 15:34:04 10° SW 15:37:22 63° SE 15:40:41 10° ENE daylight
20 Apr - 17:11:28 10° WNW 17:14:20 25° NNW 17:17:12 10° NE daylight
20 Apr - 18:49:47 10° NW 18:51:55 16° N 18:54:04 10° NE daylight
20 Apr - 20:26:37 10° NW 20:29:30 26° NNE 20:32:24 10° E visible
20 Apr - 22:03:08 10° WNW 22:06:27 59° SW 22:09:45 10° SE visible
21 Apr - 14:45:56 10° SSW 14:49:00 35° SE 14:52:06 10° ENE daylight
21 Apr - 16:22:40 10° W 16:25:45 34° NNW 16:28:51 10° NE daylight
21 Apr - 18:01:01 10° NW 18:03:14 16° N 18:05:26 10° NE daylight
21 Apr - 19:38:15 10° NW 19:40:53 21° NNE 19:43:30 10° ENE daylight
21 Apr - 21:14:40 10° NW 21:18:02 81° NE 21:21:23 10° ESE visible
21 Apr - 22:52:51 10° WSW 22:54:20 12° SW 22:55:48 10° SSW visible
22 Apr - 13:58:06 10° S 14:00:40 21° SE 14:03:14 10° E daylight
22 Apr - 15:33:55 10° WSW 15:37:11 50° NNW 15:40:28 10° NE daylight
22 Apr - 17:12:07 10° NW 17:14:30 18° N 17:16:53 10° NE daylight
22 Apr - 18:49:48 10° NW 18:52:10 18° N 18:54:33 10° NE daylight
22 Apr - 20:26:13 10° NW 20:29:30 49° NNE 20:32:46 10° ESE visible
22 Apr - 22:03:25 10° W 22:06:01 21° SW 22:08:38 10° S visible
23 Apr - 13:10:59 10° SSE 13:12:20 12° SE 13:13:42 10° ESE daylight
23 Apr - 14:45:17 10° WSW 14:48:37 82° NW 14:51:59 10° NE daylight
23 Apr - 16:23:08 10° WNW 16:25:45 21° NNW 16:28:23 10° NE daylight
23 Apr - 18:01:12 10° NW 18:03:24 16° N 18:05:36 10° NE daylight
23 Apr - 19:37:47 10° NW 19:40:52 33° NNE 19:43:58 10° E daylight
23 Apr - 21:14:30 10° WNW 21:17:37 36° SW 21:20:43 10° SSE visible
24 Apr - 13:56:48 10° SW 14:00:05 57° SE 14:03:22 10° ENE daylight
24 Apr - 15:34:07 10° W 15:37:00 26° NNW 15:39:54 10° NE daylight
24 Apr - 17:12:26 10° NW 17:14:34 16° N 17:16:42 10° NE daylight
24 Apr - 18:49:18 10° NW 18:52:09 25° NNE 18:55:00 10° ENE daylight
24 Apr - 20:25:47 10° WNW 20:29:07 64° SW 20:32:26 10° SE daylight
25 Apr - 13:08:33 10° SSW 13:11:33 32° SE 13:14:35 10° ENE daylight
25 Apr - 14:45:08 10° W 14:48:15 36° NNW 14:51:23 10° NE daylight
25 Apr - 16:23:29 10° NW 16:25:42 16° N 16:27:55 10° NE daylight
25 Apr - 18:00:46 10° NW 18:03:20 20° NNE 18:05:55 10° ENE daylight
25 Apr - 19:37:09 10° NW 19:40:30 75° NNE 19:43:51 10° ESE daylight
25 Apr - 21:15:06 10° W 21:16:50 14° SW 21:18:33 10° SSW visible
26 Apr - 12:20:38 10° S 12:23:03 19° SE 12:25:29 10° E daylight
26 Apr - 13:56:14 10° WSW 13:59:31 54° NNW 14:02:49 10° NE daylight
26 Apr - 15:34:23 10° WNW 15:36:48 18° N 15:39:12 10° NE daylight
26 Apr - 17:12:07 10° NW 17:14:27 17° N 17:16:47 10° NE daylight
26 Apr - 18:48:33 10° NW 18:51:48 46° NNE 18:55:02 10° ESE daylight
26 Apr - 20:25:38 10° W 20:28:21 23° SW 20:31:03 10° S daylight
27 Apr - 11:33:40 10° SE 11:34:34 11° SE 11:35:28 10° ESE daylight
27 Apr - 13:07:28 10° SW 13:10:47 90° NW 13:14:09 10° NE daylight
27 Apr - 14:45:13 10° WNW 14:47:53 22° NNW 14:50:33 10° NE daylight
27 Apr - 16:23:20 10° NW 16:25:30 16° N 16:27:40 10° NE daylight
27 Apr - 17:59:56 10° NW 18:02:59 31° NNE 18:06:02 10° E daylight
27 Apr - 19:36:36 10° WNW 19:39:46 40° SW 19:42:54 10° SSE daylight
28 Apr - 12:18:51 10° SW 12:22:05 51° SE 12:25:21 10° ENE daylight
28 Apr - 13:56:02 10° W 13:58:58 27° NNW 14:01:54 10° NE daylight
28 Apr - 15:34:22 10° NW 15:36:30 16° N 15:38:38 10° NE daylight
28 Apr - 17:11:17 10° NW 17:14:05 24° NNE 17:16:52 10° ENE daylight
28 Apr - 18:47:44 10° WNW 18:51:04 71° SW 18:54:23 10° SE daylight
